K7SFN Weather Reports


Display with metric or nautical units.
time (UTC)temp
F
wind
direction
speed
MPH
gust
MPH
rain 1hr
in
rain 24hr
in
rain mn
in
humidity
%
barometer
mb
20260502130504 45 154 0.0 0.0 0.00 0.00 0.00 58 1016.2
20260502123004 44 154 0.0 0.0 0.00 0.00 0.00 57 1016.1
20260502122504 45 154 0.0 0.0 0.00 0.00 0.00 56 1016.0
20260502122004 45 154 0.0 0.0 0.00 0.00 0.00 55 1016.0
20260502121504 45 154 0.0 0.0 0.00 0.00 0.00 55 1016.0
20260502121005 45 154 0.0 0.0 0.00 0.00 0.00 55 1016.0
20260502120504 45 154 0.0 0.0 0.00 0.00 0.00 54 1016.1
20260502115505 45 154 0.0 0.0 0.00 0.00 0.00 54 1016.0
20260502115004 45 154 0.0 0.0 0.00 0.00 0.00 53 1016.0
20260502114505 45 154 0.0 0.0 0.00 0.00 0.00 52 1016.0
20260502114004 45 154 0.0 0.0 0.00 0.00 0.00 51 1016.1
20260502113504 45 154 0.0 0.0 0.00 0.00 0.00 51 1016.1
20260502113004 45 154 0.0 0.0 0.00 0.00 0.00 51 1016.1
20260502112504 45 154 0.0 0.0 0.00 0.00 0.00 50 1016.1
20260502112004 45 154 0.0 0.0 0.00 0.00 0.00 49 1016.1
20260502111504 46 154 0.0 0.0 0.00 0.00 0.00 48 1016.1
20260502111004 46 154 0.0 0.0 0.00 0.00 0.00 47 1016.1
20260502105504 47 154 0.0 0.0 0.00 0.00 0.00 45 1016.1
20260502105004 47 154 0.0 0.0 0.00 0.00 0.00 44 1016.1
20260502104504 47 154 0.0 0.0 0.00 0.00 0.00 44 1016.1
20260502104004 47 154 0.0 0.0 0.00 0.00 0.00 44 1016.1
20260502103505 46 154 0.0 0.0 0.00 0.00 0.00 45 1016.1
20260502103004 47 154 0.0 0.0 0.00 0.00 0.00 46 1016.1
20260502102505 47 154 0.0 0.0 0.00 0.00 0.00 44 1016.0
20260502102004 47 154 0.0 0.0 0.00 0.00 0.00 44 1016.0
20260502101004 47 154 0.0 0.0 0.00 0.00 0.00 44 1016.0
20260502100505 47 154 0.0 0.0 0.00 0.00 0.00 44 1015.8
20260502091504 47 154 0.0 0.0 0.00 0.00 0.00 44 1016.2
20260502091004 48 154 0.0 0.0 0.00 0.00 0.00 43 1016.3
20260502071504 51 154 0.0 0.0 0.00 0.00 0.00 39 1017.1
20260502071004 52 154 0.0 0.0 0.00 0.00 0.00 38 1017.1
20260502070504 52 154 0.0 0.0 0.00 0.00 0.00 37 1017.0
20260502070004 53 154 0.0 0.0 0.00 0.00 0.00 36 1017.0
20260502065504 53 154 0.0 0.0 0.00 0.00 0.00 35 1017.0
20260502065004 54 154 0.0 0.0 0.00 0.00 0.00 35 1017.0
20260502064505 54 154 0.0 0.0 0.00 0.00 0.00 35 1017.0
20260502064004 54 154 0.0 0.0 0.00 0.00 0.00 34 1017.0
20260502063505 54 154 0.0 0.0 0.00 0.00 0.00 34 1016.9
20260502063005 54 154 0.0 0.0 0.00 0.00 0.00 34 1016.9
20260502062504 54 154 0.0 2.0 0.00 0.00 0.00 34 1017.0
20260502062004 54 37 0.0 0.0 0.00 0.00 0.00 34 1016.8
20260502061504 55 37 0.0 0.0 0.00 0.00 0.00 34 1016.9
20260502061005 55 37 0.0 0.0 0.00 0.00 0.00 34 1016.9
20260502060504 55 37 0.0 0.0 0.00 0.00 0.00 33 1016.9
20260502060004 56 37 0.0 0.0 0.00 0.00 0.00 34 1017.0
20260502055504 56 37 0.0 0.0 0.00 0.00 0.00 34 1017.0
20260502055004 56 37 0.0 0.0 0.00 0.00 0.00 34 1017.0
20260502054005 56 37 0.0 0.0 0.00 0.00 0.00 35 1017.0
20260502053505 57 37 0.0 0.0 0.00 0.00 0.00 35 1017.0
20260502053005 57 37 0.0 0.0 0.00 0.00 0.00 34 1017.0
20260502052004 58 37 0.0 0.0 0.00 0.00 0.00 33 1017.0
20260502051504 59 37 0.0 1.0 0.00 0.00 0.00 32 1016.9
20260502051005 59 312 0.0 0.0 0.00 0.00 0.00 30 1016.9
20260502050504 60 312 0.0 0.0 0.00 0.00 0.00 30 1016.9
20260502050005 60 307 1.0 3.0 0.00 0.00 0.00 32 1017.0
20260502045504 60 282 0.0 0.0 0.00 0.00 0.00 33 1016.9
20260502045004 61 282 0.0 0.0 0.00 0.00 0.00 34 1017.0
20260502044504 61 282 0.0 1.0 0.00 0.00 0.00 31 1016.9
20260502043505 61 299 0.0 0.0 0.00 0.00 0.00 28 1016.8
20260502043004 61 299 0.0 0.0 0.00 0.00 0.00 30 1016.7
20260502042504 61 299 0.0 7.0 0.00 0.00 0.00 30 1016.6
20260502042005 61 316 1.0 2.0 0.00 0.00 0.00 32 1016.7
20260502041505 61 176 0.0 0.0 0.00 0.00 0.00 31 1016.7
20260502041005 61 176 0.0 0.0 0.00 0.00 0.00 31 1016.7
20260502040505 62 176 0.0 0.0 0.00 0.00 0.00 32 1016.6
20260502040004 62 176 0.0 0.0 0.00 0.00 0.00 31 1016.6
20260502035505 63 176 0.0 0.0 0.00 0.00 0.00 31 1016.4
20260502035004 63 176 0.0 0.0 0.00 0.00 0.00 25 1016.3
20260502034504 64 176 0.0 0.0 0.00 0.00 0.00 21 1016.2
20260502034005 64 176 0.0 0.0 0.00 0.00 0.00 22 1016.1
20260502033504 65 176 0.0 0.0 0.00 0.00 0.00 17 1016.0
20260502033004 65 176 0.0 3.0 0.00 0.00 0.00 16 1015.9
20260502032005 65 167 1.0 5.0 0.00 0.00 0.00 16 1015.7
20260502031504 65 143 0.0 0.0 0.00 0.00 0.00 18 1015.6
20260502031004 66 143 1.0 7.0 0.00 0.00 0.00 16 1015.6
20260502030504 66 200 5.0 8.0 0.00 0.00 0.00 16 1015.6
20260502025504 66 155 2.0 10.0 0.00 0.00 0.00 16 1015.5
20260502025004 67 166 5.0 8.0 0.00 0.00 0.00 15 1015.5
20260502023504 68 150 1.0 6.0 0.00 0.00 0.00 15 1015.5
20260502023004 68 166 4.0 9.0 0.00 0.00 0.00 15 1015.5
20260502022505 68 142 2.0 5.0 0.00 0.00 0.00 15 1015.4
20260502022004 68 62 0.0 0.0 0.00 0.00 0.00 16 1015.4
20260502020504 69 62 0.0 0.0 0.00 0.00 0.00 15 1015.4
20260502020004 69 62 0.0 0.0 0.00 0.00 0.00 14 1015.5
20260502015504 70 62 0.0 0.0 0.00 0.00 0.00 14 1015.4
20260502015004 70 64 2.0 6.0 0.00 0.00 0.00 15 1015.5
20260502014504 70 195 0.0 0.0 0.00 0.00 0.00 14 1015.5
20260502014004 69 195 0.0 0.0 0.00 0.00 0.00 16 1015.6
20260502013004 70 195 0.0 0.0 0.00 0.00 0.00 17 1015.5
20260502012505 70 195 0.0 0.0 0.00 0.00 0.00 18 1015.6
20260502011504 70 195 0.0 0.0 0.00 0.00 0.00 17 1015.5
20260502011005 70 195 0.0 0.0 0.00 0.00 0.00 14 1015.6
20260502010504 71 195 0.0 0.0 0.00 0.00 0.00 14 1015.6
20260502010004 71 195 0.0 0.0 0.00 0.00 0.00 13 1015.6
20260502005504 71 195 0.0 0.0 0.00 0.00 0.00 13 1015.6
20260502005004 71 195 1.0 3.0 0.00 0.00 0.00 14 1015.6
20260502004505 71 278 0.0 1.0 0.00 0.00 0.00 13 1015.7
20260502004004 72 267 0.0 0.0 0.00 0.00 0.00 14 1015.7
20260502003505 72 260 1.0 2.0 0.00 0.00 0.00 13 1015.8
20260502002504 72 208 1.0 5.0 0.00 0.00 0.00 13 1015.8
20260502001504 72 322 0.0 0.0 0.00 0.00 0.00 13 1015.8
20260502001005 72 322 0.0 1.0 0.00 0.00 0.00 13 1015.8
20260502000004 72 299 1.0 5.0 0.00 0.00 0.00 13 1016.1
20260501235504 72 328 0.0 0.0 0.00 0.00 0.00 13 1016.1
20260501235004 72 328 0.0 0.0 0.00 0.00 0.00 13 1016.1
20260501234504 72 321 3.0 6.0 0.00 0.00 0.00 12 1016.2
20260501234004 72 240 0.0 0.0 0.00 0.00 0.00 13 1016.2
20260501233505 72 240 1.0 3.0 0.00 0.00 0.00 14 1016.3
20260501233005 72 274 1.0 6.0 0.00 0.00 0.00 13 1016.3
20260501232504 72 281 0.0 6.0 0.00 0.00 0.00 13 1016.4
20260501232004 73 308 3.0 6.0 0.00 0.00 0.00 13 1016.4
20260501230504 73 322 5.0 8.0 0.00 0.00 0.00 14 1016.6
20260501230004 73 307 4.0 8.0 0.00 0.00 0.00 15 1016.7
20260501225504 73 299 1.0 9.0 0.00 0.00 0.00 15 1016.8
20260501225004 73 236 3.0 7.0 0.00 0.00 0.00 14 1016.9
20260501224505 73 307 3.0 8.0 0.00 0.00 0.00 15 1016.9
20260501224004 73 323 4.0 9.0 0.00 0.00 0.00 15 1017.0
20260501223504 73 306 5.0 9.0 0.00 0.00 0.00 14 1017.2
20260501223004 73 309 3.0 9.0 0.00 0.00 0.00 14 1017.4
20260501221504 73 175 1.0 5.0 0.00 0.00 0.00 14 1017.6
20260501221004 72 309 2.0 7.0 0.00 0.00 0.00 14 1017.8
20260501220505 73 335 3.0 8.0 0.00 0.00 0.00 14 1017.9
20260501220004 73 279 1.0 7.0 0.00 0.00 0.00 14 1018.0
20260501215504 73 333 3.0 7.0 0.00 0.00 0.00 14 1018.1
20260501215004 73 272 3.0 6.0 0.00 0.00 0.00 14 1018.1
20260501214504 73 336 2.0 6.0 0.00 0.00 0.00 15 1018.2
20260501214004 73 304 3.0 7.0 0.00 0.00 0.00 14 1018.2
20260501213504 73 318 3.0 8.0 0.00 0.00 0.00 15 1018.2
20260501213004 73 308 4.0 6.0 0.00 0.00 0.00 14 1018.4
20260501212504 73 292 3.0 7.0 0.00 0.00 0.00 15 1018.5
20260501212005 73 307 3.0 6.0 0.00 0.00 0.00 14 1018.5
20260501211505 73 227 3.0 6.0 0.00 0.00 0.00 14 1018.6
20260501211004 73 335 2.0 6.0 0.00 0.00 0.00 14 1018.5
20260501210505 72 14 2.0 6.0 0.00 0.00 0.00 16 1018.6
20260501210004 72 349 2.0 9.0 0.00 0.00 0.00 15 1018.6
20260501205504 72 338 5.0 8.0 0.00 0.00 0.00 15 1018.6
20260501204505 71 328 3.0 6.0 0.00 0.00 0.00 15 1018.7
20260501204004 71 306 3.0 7.0 0.00 0.00 0.00 16 1018.8
20260501203504 71 301 5.0 7.0 0.00 0.00 0.00 16 1018.8
20260501203004 71 288 5.0 8.0 0.00 0.00 0.00 16 1018.9
20260501202504 72 313 3.0 9.0 0.00 0.00 0.00 16 1019.0
20260501202004 72 316 3.0 9.0 0.00 0.00 0.00 16 1019.0
20260501201505 71 324 3.0 8.0 0.00 0.00 0.00 16 1019.1
20260501201004 71 338 1.0 3.0 0.00 0.00 0.00 17 1019.2
20260501200504 71 346 1.0 9.0 0.00 0.00 0.00 17 1019.2
20260501200004 70 309 1.0 5.0 0.00 0.00 0.00 17 1019.2
20260501195504 70 309 2.0 8.0 0.00 0.00 0.00 17 1019.3
20260501195004 70 316 3.0 9.0 0.00 0.00 0.00 17 1019.3
20260501194504 71 0 0.0 6.0 0.00 0.00 0.00 17 1019.4
20260501194004 71 172 0.0 2.0 0.00 0.00 0.00 16 1019.5
20260501193504 70 187 1.0 6.0 0.00 0.00 0.00 16 1019.7
20260501193004 70 148 5.0 8.0 0.00 0.00 0.00 16 1019.8
20260501192005 70 287 2.0 6.0 0.00 0.00 0.00 17 1019.7
20260501191504 70 216 1.0 5.0 0.00 0.00 0.00 17 1019.8
20260501190505 70 350 0.0 0.0 0.00 0.00 0.00 17 1019.9
20260501190005 70 350 1.0 6.0 0.00 0.00 0.00 16 1019.9
20260501185004 68 306 0.0 7.0 0.00 0.00 0.00 22 1020.2
20260501184004 68 313 1.0 5.0 0.00 0.00 0.00 21 1020.3
20260501183504 68 316 1.0 9.0 0.00 0.00 0.00 21 1020.4
20260501183004 68 188 1.0 5.0 0.00 0.00 0.00 22 1020.4
20260501182504 68 103 1.0 5.0 0.00 0.00 0.00 20 1020.5
20260501182004 67 185 1.0 3.0 0.00 0.00 0.00 24 1020.4
20260501181504 67 322 2.0 7.0 0.00 0.00 0.00 24 1020.4
20260501181004 66 306 2.0 9.0 0.00 0.00 0.00 24 1020.4
20260501180504 66 282 0.0 7.0 0.00 0.00 0.00 24 1020.5
20260501180005 66 306 3.0 8.0 0.00 0.00 0.00 24 1020.5
20260501175505 66 298 2.0 8.0 0.00 0.00 0.00 25 1020.5
20260501175004 65 313 2.0 7.0 0.00 0.00 0.00 24 1020.5
20260501174505 65 296 5.0 8.0 0.00 0.00 0.00 24 1020.5
20260501174005 65 328 2.0 7.0 0.00 0.00 0.00 26 1020.5
20260501173504 65 199 2.0 5.0 0.00 0.00 0.00 25 1020.5
20260501172505 64 260 1.0 3.0 0.00 0.00 0.00 27 1020.5
20260501171505 64 297 2.0 8.0 0.00 0.00 0.00 24 1020.5
20260501170005 63 280 0.0 3.0 0.00 0.00 0.00 28 1020.5
20260501165505 62 259 1.0 5.0 0.00 0.00 0.00 27 1020.6
20260501165004 62 281 1.0 5.0 0.00 0.00 0.00 30 1020.6
20260501164504 62 300 3.0 6.0 0.00 0.00 0.00 29 1020.6
20260501164004 62 299 1.0 3.0 0.00 0.00 0.00 29 1020.6
20260501163504 61 141 0.0 0.0 0.00 0.00 0.00 30 1020.6
20260501162504 61 141 0.0 0.0 0.00 0.00 0.00 31 1020.6
20260501162005 60 141 0.0 0.0 0.00 0.00 0.00 31 1020.8
20260501161004 59 263 0.0 0.0 0.00 0.00 0.00 36 1020.8
20260501160505 59 263 0.0 0.0 0.00 0.00 0.00 37 1020.8
20260501160004 58 263 1.0 3.0 0.00 0.00 0.00 38 1020.8
20260501155504 57 134 0.0 0.0 0.00 0.00 0.00 39 1020.8
20260501155004 57 134 0.0 0.0 0.00 0.00 0.00 39 1020.8
20260501154004 56 134 0.0 0.0 0.00 0.00 0.00 47 1020.8
20260501153504 55 134 0.0 0.0 0.00 0.00 0.00 48 1020.7
20260501153005 55 134 0.0 0.0 0.00 0.00 0.00 49 1020.8
20260501152504 55 134 0.0 0.0 0.00 0.00 0.00 52 1020.8
20260501152004 55 134 0.0 0.0 0.00 0.00 0.00 52 1020.6
20260501151504 55 134 0.0 0.0 0.00 0.00 0.00 49 1020.6
20260501151004 54 134 0.0 0.0 0.00 0.00 0.00 46 1020.6
20260501150004 54 134 0.0 0.0 0.00 0.00 0.00 46 1020.6
20260501145004 53 134 0.0 0.0 0.00 0.00 0.00 43 1020.5
20260501144504 52 134 0.0 0.0 0.00 0.00 0.00 44 1020.5
20260501144005 51 134 0.0 0.0 0.00 0.00 0.00 49 1020.6
20260501143504 49 134 0.0 3.0 0.00 0.00 0.00 52 1020.5
20260501143004 48 44 0.0 0.0 0.00 0.00 0.00 55 1020.5
20260501142505 47 44 0.0 0.0 0.00 0.00 0.00 57 1020.5
20260501142004 45 44 0.0 0.0 0.00 0.00 0.00 59 1020.5
20260501141505 44 44 0.0 0.0 0.00 0.00 0.00 61 1020.4